Вернуться в каталог

STARLINK-32122

АктивенСвязьVLEO
NORAD 60285·PAYLOAD·🇺🇸 United States

Запущен Jul 28, 2024 с Cape Canaveral Space Force Station

Loading…

Ближайшие Пролёты (ближайшие 24 часа)

TLE

СвежийSource: CelesTrak SupGP

Эпоха: Sep 15, 2026, 03:18 UTC

1 60285C 24132H   26258.13798611 -.00038697  00000+0 -12442-2 0  2589
2 60285  53.1592 251.6507 0001387  87.9088  41.9566 15.31725751    12

Отслеживайте STARLINK-32122 в реальном времени с AllMySat

Download on the App Store